Torna al catalogo

FENGYUN 1C DEB

AttivoPO
NORAD 30724·DEBRIS·🇨🇳 China

Lanciato May 10, 1999 da Taiyuan Satellite Launch Center

Loading…

Prossimi Passaggi (prossime 24 ore)

TLE

AggiornatoSource: Space-Track

Epoca: Sep 13, 2026, 09:26 UTC

1 30724U 99025ASJ 26256.39328910  .00000544  00000-0  18942-3 0  9997
2 30724  99.3018 108.6932 0092683 180.0186 306.6544 14.37585926 23912

Traccia FENGYUN 1C DEB in tempo reale con AllMySat

Download on the App Store